FDX742 LIMC-BIKF

Flight info

Callsign FDX742
Flight time N/A
Altitude 34000
Route AOSTA DCT ORSUD DCT MOLUS DCT UNKIR DCT DJL DCT BRY DCT CLM DCT KOPOR DCT VESAN DCT RATUK DCT SOVAT L613 LEHOC DCT ERSON/N0475F360 DCT STN DCT BARKU DCT RATSU/M083F360 DCT ALDAN DCT ASRUN ASRUN2H
Aircraft B77L/H-SDE1E2E3FGHIJ2J3J4J5M1RWXY/LB1D1

Departure

Time 2026-05-01 08:58
Airport Milan Malpensa International Airport (LIMC)

Arrival

Time N/A
Airport Keflavik International Airport (BIKF)
Time Latitude Longitude Altitude Speed Heading
2026-05-01 08:08 45.60942 8.72056 704 ft 0 kts 259°
2026-05-01 08:49 45.60943 8.72067 704 ft 2 kts 259°
2026-05-01 08:49 45.60946 8.72087 704 ft 1 kts 259°
2026-05-01 08:50 45.60948 8.72101 704 ft 2 kts 253°
2026-05-01 08:50 45.60954 8.72121 704 ft 2 kts 237°
2026-05-01 08:50 45.60963 8.72137 704 ft 2 kts 223°
2026-05-01 08:50 45.60974 8.72150 704 ft 2 kts 209°
2026-05-01 08:51 45.60988 8.72159 704 ft 2 kts 195°
2026-05-01 08:51 45.61002 8.72162 705 ft 2 kts 182°
2026-05-01 08:51 45.61015 8.72162 705 ft 0 kts 170°
2026-05-01 08:51 45.61019 8.72161 705 ft 0 kts 169°
2026-05-01 08:53 45.60969 8.72175 704 ft 17 kts 168°
2026-05-01 08:53 45.60801 8.72219 701 ft 26 kts 169°
2026-05-01 08:53 45.60652 8.72275 699 ft 17 kts 137°
2026-05-01 08:53 45.60640 8.72435 699 ft 17 kts 87°
2026-05-01 08:54 45.60627 8.72651 698 ft 26 kts 98°
2026-05-01 08:54 45.60603 8.72944 697 ft 29 kts 96°
2026-05-01 08:54 45.60604 8.73218 697 ft 26 kts 63°
2026-05-01 08:54 45.60749 8.73345 698 ft 23 kts 22°
2026-05-01 08:55 45.60894 8.73412 699 ft 20 kts
2026-05-01 08:55 45.61022 8.73385 700 ft 17 kts 351°
2026-05-01 08:55 45.61150 8.73347 701 ft 24 kts 349°
2026-05-01 08:55 45.61362 8.73292 704 ft 34 kts 350°
2026-05-01 08:56 45.61566 8.73227 708 ft 18 kts 352°
2026-05-01 08:56 45.61623 8.73278 709 ft 9 kts 73°
2026-05-01 08:56 45.61632 8.73375 708 ft 11 kts 85°
2026-05-01 08:56 45.61607 8.73506 707 ft 16 kts 118°
2026-05-01 08:57 45.61591 8.73667 706 ft 16 kts 76°
2026-05-01 08:57 45.61670 8.73734 707 ft 16 kts 349°
2026-05-01 08:57 45.61924 8.73663 712 ft 68 kts 349°
2026-05-01 08:57 45.62622 8.73466 729 ft 134 kts 349°
2026-05-01 08:58 45.63736 8.73159 793 ft 184 kts 350°
2026-05-01 08:58 45.64991 8.72748 1469 ft 186 kts 351°
2026-05-01 08:58 45.66270 8.72560 2252 ft 189 kts 360°
2026-05-01 08:58 45.67556 8.72536 2904 ft 185 kts
2026-05-01 08:59 45.68856 8.72627 3256 ft 191 kts
2026-05-01 08:59 45.70186 8.72634 3731 ft 192 kts
2026-05-01 08:59 45.71537 8.72576 4064 ft 202 kts 353°
2026-05-01 08:59 45.72895 8.71818 4274 ft 221 kts 324°
2026-05-01 09:00 45.73936 8.70137 4606 ft 234 kts 296°
2026-05-01 09:00 45.74288 8.67863 5133 ft 239 kts 266°
2026-05-01 09:00 45.73827 8.65610 5686 ft 242 kts 242°
2026-05-01 09:00 45.72949 8.63527 6297 ft 244 kts 239°
2026-05-01 09:01 45.72036 8.61476 6842 ft 247 kts 239°
2026-05-01 09:01 45.71104 8.59391 7324 ft 254 kts 239°
2026-05-01 09:01 45.70142 8.57185 7551 ft 272 kts 239°
2026-05-01 09:01 45.69114 8.54822 7870 ft 286 kts 239°
2026-05-01 09:02 45.68070 8.52437 8480 ft 288 kts 240°
2026-05-01 09:02 45.66997 8.50008 9053 ft 291 kts 239°
2026-05-01 09:02 45.65909 8.47568 9632 ft 293 kts 239°
2026-05-01 09:02 45.64803 8.45085 10168 ft 295 kts 239°
2026-05-01 09:03 45.63676 8.42555 10620 ft 302 kts 239°
2026-05-01 09:03 45.62455 8.40011 10860 ft 321 kts 233°
2026-05-01 09:03 45.61167 8.37275 10908 ft 338 kts 244°
2026-05-01 09:03 45.60273 8.34108 11090 ft 354 kts 256°
2026-05-01 09:04 45.59869 8.30606 11338 ft 368 kts 268°
2026-05-01 09:04 45.59890 8.26860 11533 ft 381 kts 275°
2026-05-01 09:04 45.60214 8.23210 12160 ft 388 kts 282°
2026-05-01 09:04 45.60836 8.19337 12810 ft 393 kts 286°
2026-05-01 09:05 45.61559 8.15516 13485 ft 397 kts 287°
2026-05-01 09:05 45.62004 8.13301 13948 ft 399 kts 288°
2026-05-01 09:05 45.62803 8.09481 14722 ft 406 kts 288°
2026-05-01 09:05 45.63632 8.05642 15500 ft 412 kts 289°
2026-05-01 09:06 45.64502 8.01702 16311 ft 416 kts 289°
2026-05-01 09:06 45.65382 7.97759 17127 ft 421 kts 289°
2026-05-01 09:06 45.66282 7.93761 17866 ft 427 kts 290°
2026-05-01 09:06 45.67190 7.89750 18613 ft 433 kts 290°
2026-05-01 09:07 45.68123 7.85633 19372 ft 437 kts 290°
2026-05-01 09:07 45.69060 7.81507 20123 ft 442 kts 290°
2026-05-01 09:07 45.70005 7.77344 20885 ft 445 kts 290°
2026-05-01 09:07 45.70964 7.73117 21626 ft 449 kts 290°
2026-05-01 09:08 45.71925 7.68877 22323 ft 453 kts 290°
2026-05-01 09:08 45.72905 7.64546 23014 ft 457 kts 290°
2026-05-01 09:08 45.73872 7.60269 23650 ft 462 kts 290°
2026-05-01 09:08 45.74875 7.55825 24223 ft 468 kts 290°
2026-05-01 09:09 45.75872 7.51399 24802 ft 472 kts 290°
2026-05-01 09:09 45.76883 7.46902 25440 ft 475 kts 290°
2026-05-01 09:09 45.78362 7.40919 26292 ft 477 kts 296°
2026-05-01 09:09 45.79377 7.38074 26664 ft 478 kts 302°
2026-05-01 09:10 45.81266 7.34145 27212 ft 480 kts 311°
2026-05-01 09:10 45.83580 7.30662 27758 ft 482 kts 320°
2026-05-01 09:10 45.86214 7.27723 28336 ft 483 kts 326°
2026-05-01 09:10 45.89014 7.24907 28960 ft 486 kts 327°
2026-05-01 09:11 45.91814 7.22097 29553 ft 489 kts 326°
2026-05-01 09:11 45.94611 7.19276 30194 ft 491 kts 326°
2026-05-01 09:11 45.97421 7.16427 30951 ft 489 kts 326°
2026-05-01 09:11 46.00169 7.13632 31705 ft 487 kts 326°
2026-05-01 09:12 46.02964 7.10780 32392 ft 486 kts 326°
2026-05-01 09:12 46.05691 7.07992 32996 ft 485 kts 326°
2026-05-01 09:12 46.08469 7.05145 33572 ft 485 kts 326°
2026-05-01 09:12 46.11016 7.02531 34120 ft 484 kts 325°
2026-05-01 09:13 46.13756 6.99714 34344 ft 487 kts 325°
2026-05-01 09:13 46.16544 6.96841 34359 ft 485 kts 325°
2026-05-01 09:13 46.21885 6.91329 34353 ft 482 kts 325°
2026-05-01 09:14 46.27251 6.85776 34328 ft 485 kts 325°
2026-05-01 09:14 46.32036 6.80811 34334 ft 486 kts 325°
2026-05-01 09:15 46.37577 6.75049 34325 ft 486 kts 325°
2026-05-01 09:15 46.42907 6.69053 34315 ft 487 kts 316°
2026-05-01 09:16 46.47026 6.61191 34307 ft 489 kts 301°
2026-05-01 09:17 46.52167 6.48262 34268 ft 492 kts 300°